Nuiqsut, AK

5:29 PM AKDT on October 20, 2017 (GMT -0800)
Nuiqsut

Weather History for PAQT - May, 2014

Change the Weather History Date:

Monday, May 5, 2014

  Actual Average (PAKU) Record (PAKU)
Temperature  
Mean Temperature 22 °F -  
Max Temperature 27 °F 18 °F 32 °F (1991)
Min Temperature 16 °F 7 °F -14 °F (2013)
Degree Days  
Heating Degree Days 44    
Moisture  
Dew Point 20 °F    
Average Humidity 94    
Maximum Humidity 96    
Minimum Humidity 91    
Precipitation  
Precipitation 0.00 in - - ()
Sea Level Pressure  
Sea Level Pressure 29.98 in    
Wind  
Wind Speed 13 mph (SW)    
Max Wind Speed 21 mph    
Max Gust Speed -    
Visibility 10 miles    
Events      
Averages and records for this station are not official NWS values.
T = Trace of Precipitation, MM = Missing Value Source: NWS Daily Summary

Daily Weather History Graph

Daily Weather History Graph

Search for Another Location

Airport or City:

Trip Planner

Search our weather history database for the weather conditions in past years. The results will help you decide how hot, cold, wet, or windy it might be!

Date:

Astronomy

May. 05, 2014 Rise Set
Actual Time 4:04 AM AKDT 12:02 AM AKDT
Civil Twilight Sun does not rise Sun does not rise
Nautical Twilight Sun does not rise Sun does not rise
Astronomical Twilight Sun does not rise Sun does not rise
Moon 10:04 AM AKDT (5/5) 4:23 AM AKDT (5/5)
Length of Visible Light 24h 00m
Length of Day
19h 58m
Waxing Crescent, 38% of the Moon is Illuminated
May 5
Waxing Crescent
May 6
First Quarter
May 14
Full
May 21
Last Quarter
May 28
New

Hourly Weather History & Observations

Time (AKDT) Temp. Windchill Dew Point Humidity Pressure Visibility Wind Dir Wind Speed Gust Speed Precip Events Conditions
12:14 AM 25.0 °F 18.1 °F 24.1 °F 96% 29.93 in 10.0 mi West 5.8 mph - 0.00 in   Overcast
12:53 AM 23.0 °F 10.6 °F 21.9 °F 96% 29.94 in 10.0 mi West 13.8 mph - 0.00 in   Overcast
1:06 AM 23.0 °F 10.6 °F 21.9 °F 96% 29.94 in 10.0 mi West 13.8 mph - N/A   Overcast
1:53 AM 21.9 °F 9.2 °F 21.0 °F 96% 29.96 in 10.0 mi West 13.8 mph - N/A   Overcast
2:13 AM 21.0 °F 7.1 °F 19.0 °F 92% 29.96 in 10.0 mi West 16.1 mph - N/A   Mostly Cloudy
2:41 AM 19.9 °F 6.2 °F 18.0 °F 92% 29.96 in 10.0 mi West 15.0 mph - N/A   Overcast
2:53 AM 19.9 °F 6.7 °F 18.0 °F 92% 29.97 in 10.0 mi West 13.8 mph - N/A   Overcast
3:14 AM 19.0 °F 5.6 °F 17.1 °F 92% 29.98 in 10.0 mi West 13.8 mph - N/A   Overcast
3:53 AM 17.1 °F 3.6 °F 15.1 °F 92% 29.99 in 10.0 mi WSW 12.7 mph - N/A   Overcast
4:07 AM 17.1 °F 5.8 °F 15.1 °F 92% 29.99 in 10.0 mi SW 9.2 mph - N/A   Overcast
4:16 AM 17.1 °F 5.8 °F 15.1 °F 92% 29.99 in 10.0 mi SSW 9.2 mph - N/A   Mostly Cloudy
4:53 AM 16.0 °F 2.9 °F 14.0 °F 92% 29.99 in 10.0 mi SSW 11.5 mph - N/A   Clear
5:53 AM 16.0 °F 1.1 °F 14.0 °F 92% 29.99 in 10.0 mi South 15.0 mph - N/A   Clear
6:53 AM 17.1 °F 1.5 °F 15.1 °F 92% 29.99 in 10.0 mi SSW 17.3 mph - N/A   Clear
7:53 AM 18.0 °F 1.7 °F 17.1 °F 96% 30.00 in 10.0 mi SSW 19.6 mph - N/A   Clear
8:53 AM 19.9 °F 3.9 °F 19.0 °F 96% 29.99 in 10.0 mi SW 20.7 mph - N/A   Clear
10:53 AM 21.9 °F 7.3 °F 21.0 °F 96% 30.01 in 10.0 mi SSW 18.4 mph - N/A   Clear
11:53 AM 24.1 °F 10.1 °F 21.9 °F 91% 30.00 in 10.0 mi SSW 18.4 mph - N/A   Clear
12:53 PM 24.1 °F 9.4 °F 23.0 °F 96% 30.00 in 10.0 mi SSW 20.7 mph - N/A   Clear
1:53 PM 25.0 °F 10.9 °F 24.1 °F 96% 29.99 in 10.0 mi SSW 19.6 mph - N/A   Clear
2:53 PM 26.1 °F 13.1 °F 25.0 °F 96% 29.99 in 10.0 mi SSW 17.3 mph - N/A   Clear
3:53 PM 26.1 °F 13.6 °F 25.0 °F 96% 29.99 in 9.0 mi South 16.1 mph - N/A   Clear
4:53 PM 27.0 °F 15.2 °F 26.1 °F 96% 29.98 in 10.0 mi SSW 15.0 mph - N/A   Clear
5:53 PM 27.0 °F 14.7 °F 26.1 °F 96% 29.98 in 10.0 mi SSW 16.1 mph - N/A   Clear
6:53 PM 27.0 °F 14.3 °F 26.1 °F 96% 29.97 in 10.0 mi SSW 17.3 mph - N/A   Clear
7:53 PM 26.1 °F 14.5 °F 25.0 °F 96% 29.98 in 10.0 mi SSW 13.8 mph - N/A   Clear
8:53 PM 25.0 °F 14.2 °F 24.1 °F 96% 29.97 in 10.0 mi South 11.5 mph - N/A   Clear
9:53 PM 21.9 °F 12.5 °F 21.0 °F 96% 29.97 in 10.0 mi South 8.1 mph - N/A   Clear
10:53 PM 19.9 °F 9.3 °F 18.0 °F 92% 29.97 in 10.0 mi South 9.2 mph - N/A   Clear
11:53 PM 16.0 °F 5.3 °F 14.0 °F 92% 29.96 in 10.0 mi SSE 8.1 mph - 0.00 in   Clear